Powrót do katalogu

QIANFAN-2

AktywnyŁącznośćPO
NORAD 60380·PAYLOAD·🇨🇳 China

Wystrzelony Aug 6, 2024 z Taiyuan Satellite Launch Center

Loading…

Następne Przeloty (najbliższe 24 godziny)

TLE

ŚwieżeSource: Space-Track

Epoka: Sep 14, 2026, 23:25 UTC

1 60380U 24140B   26257.97623854  .00000013  00000-0  12774-5 0  9994
2 60380  88.9651 270.4039 0014819 107.0968 253.1808 13.51020268104702

Śledź QIANFAN-2 w czasie rzeczywistym z AllMySat

Download on the App Store